User: anonymous   Login
Location: Columbia
(38.9520°N, 92.3340°W)
Time: 04:38:02
(UTC-05:00)
Language:

Iridium 22 - Orbit

View from above orbital plane
View from above orbital plane
View from above satellite
View from above satellite

Ground track
Ground track

The orbit data is extracted from the following two-line orbital elements,

1 24907U 97043E   18172.89229653 +.00000091 +00000-0 +25452-4 0  9990
2 24907 086.3975 101.6369 0002178 084.9811 275.1633 14.34251997090839
Epoch (UTC): 21 June 2018 21:24:54
Eccentricity: 0.0002178
inclination: 86.3975°
perigee height: 776 km
apogee height: 779 km
right ascension of ascending node: 101.6369°
argument of perigee: 84.9811°
revolutions per day: 14.34251997
mean anomaly at epoch: 275.1633°
orbit number at epoch: 9083

The dashed part of the orbit path shows where the satellite is in the earth's shadow,  

DLR